Radioactive Concentration measured by Seawater Radiation Monitor near Fukushima Daiichi Nuclear Power Station
Date,Time,Cs137(Bq/L),Cs134(Bq/L),Total β(Bq/L)
2017/05/15,00:00,0.70,0.061,ND
2017/05/15,00:10,0.70,0.050,ND
2017/05/15,00:20,0.68,0.050,ND
2017/05/15,00:30,0.70,0.039,ND
2017/05/15,00:40,0.70,0.034,ND
2017/05/15,00:50,0.79,ND,ND
2017/05/15,01:00,0.78,ND,ND
2017/05/15,01:10,0.78,ND,ND
2017/05/15,01:20,0.73,0.026,ND
2017/05/15,01:30,0.72,0.027,ND
2017/05/15,01:40,0.74,0.027,ND
2017/05/15,01:50,0.78,ND,ND
2017/05/15,02:00,0.80,ND,ND
2017/05/15,02:10,0.75,0.032,ND
2017/05/15,02:20,0.75,0.029,ND
2017/05/15,02:30,0.68,0.051,ND
2017/05/15,02:40,0.68,0.050,ND
2017/05/15,02:50,0.69,0.049,ND
2017/05/15,03:00,0.70,0.032,ND
2017/05/15,03:10,0.74,0.029,ND
2017/05/15,03:20,0.84,ND,ND
2017/05/15,03:30,0.84,ND,ND
2017/05/15,03:40,0.82,ND,ND
2017/05/15,03:50,0.75,0.031,ND
2017/05/15,04:00,0.74,0.038,ND
2017/05/15,04:10,0.72,0.032,ND
2017/05/15,04:20,0.63,0.052,ND
2017/05/15,04:30,0.63,0.051,ND
2017/05/15,04:40,0.65,0.043,ND
2017/05/15,04:50,0.76,ND,ND
2017/05/15,05:00,0.75,ND,ND
2017/05/15,05:10,0.75,ND,ND
2017/05/15,05:20,0.76,ND,ND
2017/05/15,05:30,0.75,ND,ND
2017/05/15,05:40,0.76,ND,ND
2017/05/15,05:50,0.65,0.035,ND
2017/05/15,06:00,0.66,0.027,ND
2017/05/15,06:10,0.68,0.029,ND
2017/05/15,06:20,0.78,ND,ND
2017/05/15,06:30,0.81,ND,ND
2017/05/15,06:40,0.82,ND,10
2017/05/15,06:50,0.82,ND,ND
2017/05/15,07:00,0.76,0.050,ND
2017/05/15,07:10,0.74,0.054,ND
2017/05/15,07:20,0.73,0.057,ND
2017/05/15,07:30,0.74,0.042,ND
2017/05/15,07:40,0.74,0.047,ND
2017/05/15,07:50,0.75,0.043,ND
2017/05/15,08:00,0.82,ND,ND
2017/05/15,08:10,0.84,ND,ND
2017/05/15,08:20,0.72,0.049,ND
2017/05/15,08:30,0.72,0.063,ND
2017/05/15,08:40,0.73,0.061,ND
2017/05/15,08:50,0.82,0.045,9.3
2017/05/15,09:00,0.84,0.045,ND
2017/05/15,09:10,0.77,0.061,ND
2017/05/15,09:20,0.86,0.038,ND
2017/05/15,09:30,0.86,0.034,ND
2017/05/15,09:40,0.87,0.029,ND
2017/05/15,09:50,0.86,0.035,ND
2017/05/15,10:00,0.86,0.037,ND
2017/05/15,10:10,0.88,0.025,ND
2017/05/15,10:20,0.92,ND,ND
2017/05/15,10:30,0.92,ND,9.2
2017/05/15,10:40,0.91,ND,ND
2017/05/15,10:50,0.90,ND,9.0
2017/05/15,11:00,0.87,ND,10
2017/05/15,11:10,0.85,ND,11
2017/05/15,11:20,0.84,ND,9.3
2017/05/15,11:30,0.83,ND,ND
2017/05/15,11:40,0.81,ND,11
2017/05/15,11:50,0.70,0.035,11
2017/05/15,12:00,0.79,ND,10
2017/05/15,12:10,0.79,ND,9.3
2017/05/15,12:20,0.79,ND,9.2
2017/05/15,12:30,0.81,ND,9.5
2017/05/15,12:40,0.82,ND,ND
2017/05/15,12:50,0.76,0.045,ND
2017/05/15,13:00,0.85,ND,ND
2017/05/15,13:10,0.84,ND,ND
2017/05/15,13:20,0.85,ND,ND
2017/05/15,13:30,0.84,ND,ND
2017/05/15,13:40,0.85,ND,ND
2017/05/15,13:50,0.74,0.047,ND
2017/05/15,14:00,0.85,ND,ND
2017/05/15,14:10,0.82,0.025,ND
2017/05/15,14:20,0.73,0.049,ND
2017/05/15,14:30,0.71,0.048,8.8
2017/05/15,14:40,0.70,0.050,9.2
2017/05/15,14:50,0.82,ND,ND
2017/05/15,15:00,0.73,0.034,ND
2017/05/15,15:10,0.70,0.044,ND
2017/05/15,15:20,0.71,0.047,ND
2017/05/15,15:30,0.72,0.051,ND
2017/05/15,15:40,0.70,0.054,ND
2017/05/15,15:50,0.69,0.058,ND
2017/05/15,16:00,0.70,0.061,ND
2017/05/15,16:10,0.72,0.064,ND
2017/05/15,16:20,0.76,0.062,9.2
2017/05/15,16:30,0.75,0.065,ND
2017/05/15,16:40,0.78,0.054,11
2017/05/15,16:50,0.86,0.034,11
2017/05/15,17:00,0.86,0.036,9.5
2017/05/15,17:10,0.89,ND,13
2017/05/15,17:20,0.87,ND,13
2017/05/15,17:30,0.86,ND,14
2017/05/15,17:40,0.87,ND,12
2017/05/15,17:50,0.87,ND,10
2017/05/15,18:00,0.82,0.054,12
2017/05/15,18:10,0.79,0.063,ND
2017/05/15,18:20,0.81,0.059,8.9
2017/05/15,18:30,0.81,0.065,9.3
2017/05/15,18:40,0.83,0.062,11
2017/05/15,18:50,0.84,0.061,12
2017/05/15,19:00,0.83,0.060,11
2017/05/15,19:10,0.90,0.029,12
2017/05/15,19:20,0.81,0.061,12
2017/05/15,19:30,0.80,0.063,12
2017/05/15,19:40,0.88,0.042,9.9
2017/05/15,19:50,0.88,0.049,9.0
2017/05/15,20:00,0.88,0.047,ND
2017/05/15,20:10,0.89,0.052,ND
2017/05/15,20:20,0.90,0.048,ND
2017/05/15,20:30,0.95,0.044,ND
2017/05/15,20:40,0.97,0.054,ND
2017/05/15,20:50,1.0,0.050,ND
2017/05/15,21:00,1.0,0.053,ND
2017/05/15,21:10,1.0,0.048,ND
2017/05/15,21:20,1.1,0.043,ND
2017/05/15,21:30,1.1,0.043,ND
2017/05/15,21:40,1.1,0.052,ND
2017/05/15,21:50,1.1,0.057,ND
2017/05/15,22:00,1.0,0.090,ND
2017/05/15,22:10,1.0,0.099,ND
2017/05/15,22:20,1.0,0.097,ND
2017/05/15,22:30,1.0,0.10,ND
2017/05/15,22:40,1.1,0.092,ND
2017/05/15,22:50,1.1,0.059,ND
2017/05/15,23:00,1.2,0.058,ND
2017/05/15,23:10,1.2,0.055,ND
2017/05/15,23:20,1.1,0.057,ND
2017/05/15,23:30,1.1,0.066,ND
2017/05/15,23:40,1.1,0.067,ND
2017/05/15,23:50,0.99,0.063,ND
